Time,TemperatureF,DewpointF,PressureIn,WindDirection,WindDirectionDegrees,WindSpeedMPH,WindSpeedGustMPH,Humidity,HourlyPrecipIn,Conditions,Clouds,dailyrainin,SoftwareType,DateUTC
2013-07-15 00:03:00,74.9,71.1,30.21,East,88,0.0,0.0,88,0.00,,,0.00,Wunderground v.1.15,2013-07-15 04:03:00,
2013-07-15 00:13:00,74.5,70.7,30.21,East,88,0.0,0.0,88,0.00,,,0.00,Wunderground v.1.15,2013-07-15 04:13:00,
2013-07-15 00:23:00,74.1,70.6,30.22,East,88,0.0,0.0,89,0.00,,,0.00,Wunderground v.1.15,2013-07-15 04:23:00,
2013-07-15 00:33:00,73.9,70.5,30.21,East,88,0.0,0.0,89,0.00,,,0.00,Wunderground v.1.15,2013-07-15 04:33:00,
2013-07-15 00:43:00,73.4,70.3,30.21,East,88,0.0,0.0,90,0.00,,,0.00,Wunderground v.1.15,2013-07-15 04:43:00,
2013-07-15 00:53:00,73.2,70.4,30.22,East,88,0.0,0.0,91,0.00,,,0.00,Wunderground v.1.15,2013-07-15 04:53:00,
2013-07-15 01:03:00,73.0,70.2,30.22,East,88,0.0,0.0,91,0.00,,,0.00,Wunderground v.1.15,2013-07-15 05:03:00,
2013-07-15 01:13:00,73.1,70.3,30.22,East,88,0.0,0.0,91,0.00,,,0.00,Wunderground v.1.15,2013-07-15 05:13:00,
2013-07-15 01:23:00,73.1,70.0,30.22,East,88,0.0,0.0,90,0.00,,,0.00,Wunderground v.1.15,2013-07-15 05:23:00,
2013-07-15 01:33:00,73.1,70.0,30.22,East,88,0.0,0.0,90,0.00,,,0.00,Wunderground v.1.15,2013-07-15 05:33:00,
2013-07-15 01:43:00,73.0,70.2,30.22,East,88,0.0,0.0,91,0.00,,,0.00,Wunderground v.1.15,2013-07-15 05:43:00,
2013-07-15 01:53:00,72.8,70.0,30.22,East,88,0.0,0.0,91,0.00,,,0.00,Wunderground v.1.15,2013-07-15 05:53:00,
2013-07-15 02:03:00,72.6,69.8,30.22,East,88,0.0,0.0,91,0.00,,,0.00,Wunderground v.1.15,2013-07-15 06:03:00,
2013-07-15 02:13:00,72.4,69.6,30.22,East,88,0.0,0.0,91,0.00,,,0.00,Wunderground v.1.15,2013-07-15 06:13:00,
2013-07-15 02:23:00,72.2,69.4,30.22,East,88,0.0,0.0,91,0.00,,,0.00,Wunderground v.1.15,2013-07-15 06:23:00,
2013-07-15 02:33:00,72.1,69.6,30.22,East,88,0.0,0.0,92,0.00,,,0.00,Wunderground v.1.15,2013-07-15 06:33:00,
2013-07-15 02:43:00,72.0,69.5,30.22,East,88,0.0,0.0,92,0.00,,,0.00,Wunderground v.1.15,2013-07-15 06:43:00,
2013-07-15 02:53:00,72.3,70.2,30.22,East,88,0.0,0.0,93,0.00,,,0.00,Wunderground v.1.15,2013-07-15 06:53:00,
2013-07-15 03:03:00,72.3,70.2,30.22,East,88,0.0,0.0,93,0.00,,,0.00,Wunderground v.1.15,2013-07-15 07:03:00,
2013-07-15 03:13:00,72.3,70.2,30.22,East,88,0.0,0.0,93,0.00,,,0.00,Wunderground v.1.15,2013-07-15 07:13:00,
2013-07-15 03:23:00,72.2,70.1,30.22,East,88,0.0,0.0,93,0.00,,,0.00,Wunderground v.1.15,2013-07-15 07:23:00,
2013-07-15 03:33:00,72.2,70.1,30.23,East,88,0.0,0.0,93,0.00,,,0.00,Wunderground v.1.15,2013-07-15 07:33:00,
2013-07-15 03:43:00,72.2,70.1,30.23,East,88,0.0,0.0,93,0.00,,,0.00,Wunderground v.1.15,2013-07-15 07:43:00,
2013-07-15 03:53:00,72.1,70.0,30.23,East,88,0.0,0.0,93,0.00,,,0.00,Wunderground v.1.15,2013-07-15 07:53:00,
2013-07-15 04:03:00,71.9,69.8,30.23,East,88,0.0,0.0,93,0.00,,,0.00,Wunderground v.1.15,2013-07-15 08:03:00,
2013-07-15 04:13:00,71.9,69.8,30.23,East,88,0.0,0.0,93,0.00,,,0.00,Wunderground v.1.15,2013-07-15 08:13:00,
2013-07-15 04:23:00,71.7,69.6,30.23,East,88,0.0,0.0,93,0.00,,,0.00,Wunderground v.1.15,2013-07-15 08:23:00,
2013-07-15 04:33:00,71.8,69.7,30.23,East,88,0.0,0.0,93,0.00,,,0.00,Wunderground v.1.15,2013-07-15 08:33:00,
2013-07-15 04:43:00,71.4,69.3,30.23,East,88,0.0,0.0,93,0.00,,,0.00,Wunderground v.1.15,2013-07-15 08:43:00,
2013-07-15 04:53:00,71.2,69.1,30.23,East,88,0.0,0.0,93,0.00,,,0.00,Wunderground v.1.15,2013-07-15 08:53:00,
2013-07-15 05:03:00,71.0,68.9,30.24,East,88,0.0,0.0,93,0.00,,,0.00,Wunderground v.1.15,2013-07-15 09:03:00,
2013-07-15 05:13:00,71.1,69.0,30.24,East,88,0.0,0.0,93,0.00,,,0.00,Wunderground v.1.15,2013-07-15 09:13:00,
2013-07-15 05:23:00,71.2,69.4,30.24,East,88,0.0,0.0,94,0.00,,,0.00,Wunderground v.1.15,2013-07-15 09:23:00,
2013-07-15 05:33:00,71.1,69.0,30.24,East,88,0.0,0.0,93,0.00,,,0.00,Wunderground v.1.15,2013-07-15 09:33:00,
2013-07-15 05:43:00,70.9,69.1,30.24,East,88,0.0,0.0,94,0.00,,,0.00,Wunderground v.1.15,2013-07-15 09:43:00,
2013-07-15 05:53:00,71.0,69.2,30.25,East,88,0.0,0.0,94,0.00,,,0.00,Wunderground v.1.15,2013-07-15 09:53:00,
2013-07-15 06:03:00,70.9,69.1,30.25,East,88,0.0,0.0,94,0.00,,,0.00,Wunderground v.1.15,2013-07-15 10:03:00,
2013-07-15 06:13:00,70.8,69.0,30.25,East,88,0.0,0.0,94,0.00,,,0.00,Wunderground v.1.15,2013-07-15 10:13:00,
2013-07-15 06:23:00,70.6,68.5,30.25,East,88,0.0,0.0,93,0.00,,,0.00,Wunderground v.1.15,2013-07-15 10:23:00,
2013-07-15 06:33:00,70.4,68.3,30.26,East,88,0.0,0.0,93,0.00,,,0.00,Wunderground v.1.15,2013-07-15 10:33:00,
2013-07-15 06:43:00,70.7,68.9,30.26,NNE,29,0.0,0.0,94,0.00,,,0.00,Wunderground v.1.15,2013-07-15 10:43:00,
2013-07-15 06:53:00,70.7,68.6,30.26,NNE,29,0.0,0.0,93,0.00,,,0.00,Wunderground v.1.15,2013-07-15 10:53:00,
2013-07-15 07:03:00,70.7,68.6,30.27,NNE,29,0.0,0.0,93,0.00,,,0.00,Wunderground v.1.15,2013-07-15 11:03:00,
2013-07-15 07:13:00,70.8,69.0,30.27,ENE,74,0.0,0.0,94,0.00,,,0.00,Wunderground v.1.15,2013-07-15 11:13:00,
2013-07-15 07:23:00,71.1,69.3,30.27,ENE,72,0.0,0.0,94,0.00,,,0.00,Wunderground v.1.15,2013-07-15 11:23:00,
2013-07-15 07:33:00,71.5,69.7,30.27,WNW,285,0.0,0.0,94,0.00,,,0.00,Wunderground v.1.15,2013-07-15 11:33:00,
2013-07-15 07:43:00,72.1,70.3,30.27,WNW,285,0.0,0.0,94,0.00,,,0.00,Wunderground v.1.15,2013-07-15 11:43:00,
2013-07-15 07:48:00,72.6,70.8,30.27,WNW,285,0.0,0.0,94,0.00,,,0.00,Wunderground v.1.15,2013-07-15 11:48:00,
2013-07-15 08:03:00,74.3,71.5,30.28,South,172,1.0,1.0,91,0.00,,,0.00,Wunderground v.1.15,2013-07-15 12:03:00,
2013-07-15 08:13:00,75.3,71.8,30.28,South,172,1.0,2.0,89,0.00,,,0.00,Wunderground v.1.15,2013-07-15 12:13:00,
2013-07-15 08:23:00,76.2,72.0,30.28,South,172,1.0,1.0,87,0.00,,,0.00,Wunderground v.1.15,2013-07-15 12:23:00,
2013-07-15 08:33:00,76.7,71.8,30.28,SSE,165,2.0,2.0,85,0.00,,,0.00,Wunderground v.1.15,2013-07-15 12:33:00,
2013-07-15 08:43:00,77.2,71.6,30.28,SSE,158,3.0,3.0,83,0.00,,,0.00,Wunderground v.1.15,2013-07-15 12:43:00,
2013-07-15 08:53:00,77.7,71.8,30.28,SSE,159,2.0,2.0,82,0.00,,,0.00,Wunderground v.1.15,2013-07-15 12:53:00,
2013-07-15 09:03:00,78.4,72.1,30.28,SE,144,2.0,6.0,81,0.00,,,0.00,Wunderground v.1.15,2013-07-15 13:03:00,
2013-07-15 09:13:00,78.9,72.6,30.29,SSE,147,2.0,3.0,81,0.00,,,0.00,Wunderground v.1.15,2013-07-15 13:13:00,
2013-07-15 09:23:00,79.4,72.7,30.29,SSE,160,2.0,2.0,80,0.00,,,0.00,Wunderground v.1.15,2013-07-15 13:23:00,
2013-07-15 09:33:00,79.8,72.7,30.29,SE,142,2.0,2.0,79,0.00,,,0.00,Wunderground v.1.15,2013-07-15 13:33:00,
2013-07-15 09:43:00,80.2,71.2,30.29,SW,236,2.0,3.0,74,0.00,,,0.00,Wunderground v.1.15,2013-07-15 13:43:00,
2013-07-15 09:53:00,80.2,71.2,30.29,SE,144,2.0,3.0,74,0.00,,,0.00,Wunderground v.1.15,2013-07-15 13:53:00,
2013-07-15 10:03:00,80.6,72.3,30.29,SSW,213,2.0,2.0,76,0.00,,,0.00,Wunderground v.1.15,2013-07-15 14:03:00,
2013-07-15 10:13:00,81.2,72.1,30.29,WNW,284,2.0,5.0,74,0.00,,,0.00,Wunderground v.1.15,2013-07-15 14:13:00,
2013-07-15 10:23:00,81.6,72.1,30.29,WSW,248,2.0,2.0,73,0.00,,,0.00,Wunderground v.1.15,2013-07-15 14:23:00,
2013-07-15 10:33:00,81.7,72.6,30.29,South,181,2.0,2.0,74,0.00,,,0.00,Wunderground v.1.15,2013-07-15 14:33:00,
2013-07-15 10:43:00,82.1,73.0,30.29,SSE,159,1.0,2.0,74,0.00,,,0.00,Wunderground v.1.15,2013-07-15 14:43:00,
2013-07-15 10:53:00,82.1,71.3,30.29,SW,235,2.0,2.0,70,0.00,,,0.00,Wunderground v.1.15,2013-07-15 14:53:00,
2013-07-15 11:03:00,82.9,71.7,30.29,SE,138,1.0,4.0,69,0.00,,,0.00,Wunderground v.1.15,2013-07-15 15:03:00,
2013-07-15 11:33:00,82.8,71.2,30.29,West,260,3.0,3.0,68,0.00,,,0.00,Wunderground v.1.15,2013-07-15 15:33:00,
2013-07-15 11:43:00,83.0,71.3,30.30,WSW,241,3.0,3.0,68,0.00,,,0.00,Wunderground v.1.15,2013-07-15 15:43:00,
2013-07-15 11:53:00,83.2,70.7,30.30,SW,219,3.0,3.0,66,0.00,,,0.00,Wunderground v.1.15,2013-07-15 15:53:00,
2013-07-15 12:03:00,83.7,71.1,30.30,South,181,2.0,5.0,66,0.00,,,0.00,Wunderground v.1.15,2013-07-15 16:03:00,
2013-07-15 12:23:00,84.2,70.7,30.29,SSW,204,3.0,4.0,64,0.00,,,0.00,Wunderground v.1.15,2013-07-15 16:23:00,
2013-07-15 12:33:00,84.3,70.8,30.29,SE,141,3.0,3.0,64,0.00,,,0.00,Wunderground v.1.15,2013-07-15 16:33:00,
2013-07-15 12:43:00,84.6,71.1,30.29,South,188,3.0,6.0,64,0.00,,,0.00,Wunderground v.1.15,2013-07-15 16:43:00,
2013-07-15 12:53:00,84.7,70.2,30.29,SSW,210,2.0,2.0,62,0.00,,,0.00,Wunderground v.1.15,2013-07-15 16:53:00,
2013-07-15 13:03:00,85.2,71.2,30.29,SSW,207,1.0,1.0,63,0.00,,,0.00,Wunderground v.1.15,2013-07-15 17:03:00,
2013-07-15 13:13:00,85.5,71.5,30.29,WNW,291,3.0,3.0,63,0.00,,,0.00,Wunderground v.1.15,2013-07-15 17:13:00,
2013-07-15 13:23:00,85.4,71.8,30.29,SSW,209,2.0,7.0,64,0.00,,,0.00,Wunderground v.1.15,2013-07-15 17:23:00,
2013-07-15 13:33:00,84.9,70.4,30.28,SW,234,1.0,1.0,62,0.00,,,0.00,Wunderground v.1.15,2013-07-15 17:33:00,
2013-07-15 13:43:00,85.4,70.9,30.28,SSE,165,2.0,4.0,62,0.00,,,0.00,Wunderground v.1.15,2013-07-15 17:43:00,
2013-07-15 13:53:00,86.0,71.5,30.28,SSW,213,2.0,3.0,62,0.00,,,0.00,Wunderground v.1.15,2013-07-15 17:53:00,
2013-07-15 14:13:00,86.6,70.1,30.28,SE,134,2.0,2.0,58,0.00,,,0.00,Wunderground v.1.15,2013-07-15 18:13:00,
2013-07-15 14:18:00,86.6,71.1,30.28,SE,134,1.0,2.0,60,0.00,,,0.00,Wunderground v.1.15,2013-07-15 18:18:00,
2013-07-15 14:33:00,86.5,70.5,30.28,SW,217,1.0,4.0,59,0.00,,,0.00,Wunderground v.1.15,2013-07-15 18:33:00,
2013-07-15 14:43:00,86.9,73.7,30.28,South,188,1.0,2.0,65,0.00,,,0.00,Wunderground v.1.15,2013-07-15 18:43:00,
2013-07-15 14:53:00,87.4,70.8,30.27,SSW,194,1.0,2.0,58,0.00,,,0.00,Wunderground v.1.15,2013-07-15 18:53:00,
2013-07-15 15:03:00,86.2,72.6,30.27,SSW,196,1.0,2.0,64,0.00,,,0.00,Wunderground v.1.15,2013-07-15 19:03:00,
2013-07-15 15:13:00,86.6,71.1,30.27,SSW,202,1.0,3.0,60,0.00,,,0.00,Wunderground v.1.15,2013-07-15 19:13:00,
2013-07-15 15:23:00,86.8,70.2,30.27,SSE,153,2.0,3.0,58,0.00,,,0.00,Wunderground v.1.15,2013-07-15 19:23:00,
2013-07-15 15:33:00,86.4,71.4,30.27,SSE,153,1.0,1.0,61,0.00,,,0.00,Wunderground v.1.15,2013-07-15 19:33:00,
2013-07-15 15:43:00,87.1,72.5,30.26,SSE,165,0.0,1.0,62,0.00,,,0.00,Wunderground v.1.15,2013-07-15 19:43:00,
2013-07-15 15:53:00,85.9,74.5,30.26,SSE,165,0.0,0.0,69,0.00,,,0.00,Wunderground v.1.15,2013-07-15 19:53:00,
2013-07-15 16:03:00,85.1,75.1,30.26,SSE,165,0.0,0.0,72,0.00,,,0.00,Wunderground v.1.15,2013-07-15 20:03:00,
2013-07-15 16:13:00,86.3,74.9,30.26,WNW,284,1.0,1.0,69,0.00,,,0.00,Wunderground v.1.15,2013-07-15 20:13:00,
2013-07-15 16:23:00,87.4,72.8,30.25,WNW,284,1.0,2.0,62,0.00,,,0.00,Wunderground v.1.15,2013-07-15 20:23:00,
2013-07-15 16:43:00,88.4,71.2,30.25,WSW,240,1.0,1.0,57,0.00,,,0.00,Wunderground v.1.15,2013-07-15 20:43:00,
2013-07-15 16:53:00,89.2,72.5,30.25,WSW,240,0.0,2.0,58,0.00,,,0.00,Wunderground v.1.15,2013-07-15 20:53:00,
2013-07-15 17:03:00,88.5,70.8,30.24,South,182,2.0,2.0,56,0.00,,,0.00,Wunderground v.1.15,2013-07-15 21:03:00,
2013-07-15 17:13:00,88.6,70.9,30.24,South,182,1.0,1.0,56,0.00,,,0.00,Wunderground v.1.15,2013-07-15 21:13:00,
2013-07-15 17:23:00,89.5,73.3,30.24,South,182,0.0,1.0,59,0.00,,,0.00,Wunderground v.1.15,2013-07-15 21:23:00,
2013-07-15 17:33:00,88.8,71.6,30.24,SE,126,1.0,2.0,57,0.00,,,0.00,Wunderground v.1.15,2013-07-15 21:33:00,
2013-07-15 17:43:00,88.0,71.4,30.24,ESE,110,2.0,2.0,58,0.00,,,0.00,Wunderground v.1.15,2013-07-15 21:43:00,
2013-07-15 17:53:00,88.4,73.2,30.23,ESE,110,1.0,1.0,61,0.00,,,0.00,Wunderground v.1.15,2013-07-15 21:53:00,
2013-07-15 18:03:00,88.6,72.4,30.23,ESE,110,1.0,1.0,59,0.00,,,0.00,Wunderground v.1.15,2013-07-15 22:03:00,
2013-07-15 18:13:00,88.8,74.1,30.23,ESE,110,1.0,2.0,62,0.00,,,0.00,Wunderground v.1.15,2013-07-15 22:13:00,
2013-07-15 18:23:00,87.5,71.4,30.23,ESE,110,2.0,2.0,59,0.00,,,0.00,Wunderground v.1.15,2013-07-15 22:23:00,
2013-07-15 18:33:00,87.0,74.7,30.23,ESE,110,0.0,0.0,67,0.00,,,0.00,Wunderground v.1.15,2013-07-15 22:33:00,
2013-07-15 18:43:00,86.5,75.1,30.22,ESE,110,0.0,0.0,69,0.00,,,0.00,Wunderground v.1.15,2013-07-15 22:43:00,
2013-07-15 18:53:00,87.0,72.9,30.22,SE,142,0.0,0.0,63,0.00,,,0.00,Wunderground v.1.15,2013-07-15 22:53:00,
2013-07-15 19:03:00,87.8,73.2,30.22,SE,142,0.0,0.0,62,0.00,,,0.00,Wunderground v.1.15,2013-07-15 23:03:00,
2013-07-15 19:13:00,87.5,71.4,30.22,West,267,0.0,0.0,59,0.00,,,0.00,Wunderground v.1.15,2013-07-15 23:13:00,
2013-07-15 19:23:00,87.1,73.4,30.22,SSW,195,1.0,1.0,64,0.00,,,0.00,Wunderground v.1.15,2013-07-15 23:23:00,
2013-07-15 19:33:00,86.8,74.5,30.22,SSW,195,0.0,0.0,67,0.00,,,0.00,Wunderground v.1.15,2013-07-15 23:33:00,
2013-07-15 19:43:00,86.6,75.6,30.22,SSW,195,0.0,0.0,70,0.00,,,0.00,Wunderground v.1.15,2013-07-15 23:43:00,
2013-07-15 19:53:00,86.5,73.8,30.22,SSW,195,0.0,0.0,66,0.00,,,0.00,Wunderground v.1.15,2013-07-15 23:53:00,
2013-07-15 20:03:00,85.9,74.1,30.22,SW,229,0.0,0.0,68,0.00,,,0.00,Wunderground v.1.15,2013-07-16 00:03:00,
2013-07-15 20:13:00,84.8,73.9,30.23,ENE,61,0.0,0.0,70,0.00,,,0.00,Wunderground v.1.15,2013-07-16 00:13:00,
2013-07-15 20:23:00,83.5,73.9,30.23,ENE,61,0.0,0.0,73,0.00,,,0.00,Wunderground v.1.15,2013-07-16 00:23:00,
2013-07-15 20:33:00,82.3,73.6,30.23,ENE,68,0.0,0.0,75,0.00,,,0.00,Wunderground v.1.15,2013-07-16 00:33:00,
2013-07-15 20:53:00,80.6,73.1,30.23,ENE,68,0.0,0.0,78,0.00,,,0.00,Wunderground v.1.15,2013-07-16 00:53:00,
2013-07-15 21:03:00,80.0,72.9,30.23,ENE,68,0.0,0.0,79,0.00,,,0.00,Wunderground v.1.15,2013-07-16 01:03:00,
2013-07-15 21:13:00,79.2,72.5,30.23,ENE,68,0.0,0.0,80,0.00,,,0.00,Wunderground v.1.15,2013-07-16 01:13:00,
2013-07-15 21:23:00,78.5,72.5,30.23,ENE,68,0.0,0.0,82,0.00,,,0.00,Wunderground v.1.15,2013-07-16 01:23:00,
2013-07-15 21:33:00,77.9,72.0,30.24,ENE,68,0.0,0.0,82,0.00,,,0.00,Wunderground v.1.15,2013-07-16 01:33:00,
2013-07-15 21:53:00,77.0,71.8,30.24,ENE,68,0.0,0.0,84,0.00,,,0.00,Wunderground v.1.15,2013-07-16 01:53:00,
2013-07-15 22:03:00,76.5,71.7,30.25,ENE,68,0.0,0.0,85,0.00,,,0.00,Wunderground v.1.15,2013-07-16 02:03:00,
2013-07-15 22:13:00,76.2,71.7,30.25,ENE,68,0.0,0.0,86,0.00,,,0.00,Wunderground v.1.15,2013-07-16 02:13:00,
2013-07-15 22:23:00,75.8,71.3,30.26,ENE,68,0.0,0.0,86,0.00,,,0.00,Wunderground v.1.15,2013-07-16 02:23:00,
2013-07-15 22:53:00,75.1,71.3,30.26,ENE,68,0.0,0.0,88,0.00,,,0.00,Wunderground v.1.15,2013-07-16 02:53:00,
2013-07-15 23:03:00,75.0,71.5,30.27,ENE,68,0.0,0.0,89,0.00,,,0.00,Wunderground v.1.15,2013-07-16 03:03:00,
2013-07-15 23:23:00,74.4,71.3,30.27,ENE,68,0.0,0.0,90,0.00,,,0.00,Wunderground v.1.15,2013-07-16 03:23:00,
2013-07-15 23:33:00,74.1,71.0,30.27,ENE,68,0.0,0.0,90,0.00,,,0.00,Wunderground v.1.15,2013-07-16 03:33:00,
2013-07-15 23:43:00,73.8,70.7,30.27,ENE,68,0.0,0.0,90,0.00,,,0.00,Wunderground v.1.15,2013-07-16 03:43:00,
2013-07-15 23:53:00,73.7,70.9,30.27,ENE,68,0.0,0.0,91,0.00,,,0.00,Wunderground v.1.15,2013-07-16 03:53:00,